"Pseudo-MPEC" for CAXXR72

Created 2024 Oct 4 1:22:06 UT using Find_Orb

Click here for an explanation of pseudo-MPECs

 
 Astrometry: 
     CAXXR72*1C2024 10 02.15960821 32 56.706+25 23 30.77   ~A24b 21.25GVNEOCPG96
     CAXXR72 1C2024 10 02.16526321 32 57.534+25 22 37.99   ~A24b 21.24GVNEOCPG96
     CAXXR72 1C2024 10 02.17091721 32 58.351+25 21 44.96   ~A24b 21.23GVNEOCPG96
     CAXXR72  C2024 10 02.19994421 33 02.113+25 17 11.73   ~A25b 21.2 GVNEOCPH01
     CAXXR72  C2024 10 02.20766621 33 03.198+25 15 59.38   ~A25b 21.6 GVNEOCPH01
     CAXXR72  C2024 10 02.21378521 33 04.072+25 15 01.98   ~A25b 20.7 GVNEOCPH01
     CAXXR72  C2024 10 02.22204521 33 05.235+25 13 44.32   ~A25b 20.9 GVNEOCPH01
     CAXXR72 KC2024 10 03.05870821 35 32.12 +23 01 02.1    ~A32M 21.4 GVNEOCPH21
     CAXXR72 KC2024 10 03.05947921 35 32.22 +23 00 54.7    ~A32M 21.5 GVNEOCPH21
     CAXXR72 KC2024 10 03.06959121 35 33.70 +22 59 17.1    ~A32M 21.3 GVNEOCPH21
     CAXXR72 KC2024 10 03.07267221 35 34.17 +22 58 47.4    ~A32M 21.2 GVNEOCPH21
     CAXXR72 KC2024 10 03.08930221 35 38.04 +22 56 10.7    ~A347 20.6 GXNEOCP858
     CAXXR72 KC2024 10 03.09226721 35 38.871+22 55 44.38   ~A33q 21.6 GVNEOCPI52
     CAXXR72 KC2024 10 03.09887821 35 39.869+22 54 41.11   ~A33q 22.5 GVNEOCPI52
     CAXXR72 KC2024 10 03.09905521 35 39.50 +22 54 36.5    ~A347 21.1 GXNEOCP858
     CAXXR72 KC2024 10 03.10549921 35 40.806+22 53 37.08   ~A33q 20.9 GVNEOCPI52
     CAXXR72 !C2024 10 03.18652 21 35 53.23 +22 40 30.2    ~A35M 21.6 GVNEOCP673
     CAXXR72 !C2024 10 03.19554 21 35 54.55 +22 39 02.1    ~A35M       VNEOCP673

Station data:
(673) Table Mountain Observatory, Wrightwood  (N34.381485 W117.682170)
   US/California.  Observers J. Chesley, J. Pittichova. Measurer W. M. Owen
   Jr. 0.61-m f/16 reflector + CCD.
(858) Tebbutt Observatory, Edgewood  (N35.093869 W106.220000)  US/New Mexico.
    Observer F. B. Zoltowski. 0.16-m refractor + CCD0.51-m Schmidt-Cassegrain
   + CCD.
(G96) Mt. Lemmon Survey  (N32.442729 W110.788720)  US/Arizona.  Observer E.
   J. Christensen. 1.5-m reflector + 10K CCD.
(H01) Magdalena Ridge Observatory, Socorro  (N33.984833 W107.189333)  US/New
   Mexico.  Observers W. H. Ryan, E. V. Ryan. Measurer W. H. Ryan. 2.4-m
   f/8.9 reflector + CCD.
(H21) Astronomical Research Observatory, Westfield  (N39.483054 W87.968270)
   US/Illinois.  Observer R. Holmes. Measurers S. Foglia, L. Buzzi, T.
   Linder, R. Holmes. 0.76-m f/3.0 astrograph + CCD0.81-m f/4.0 astrograph +
   CCD0.61-m f/4.5 astrograph + CCD0.40-m f/5.32 astrograph + CCD.
(I52) Steward Observatory, Mt. Lemmon Station  (N32.442570 W110.788920)
   US/Arizona.  Observers T. A. Pruyne, B. M. Africano, E. J. Christensen, G.
   A. Farneth, D. C. Fuls, A. R. Gibbs, A. D. Grauer, H. Gröller, J. A.
   Johnson, R. A. Kowalski, S. M. Larson, G. J. Leonard, D. Rankin, R. L.
   Seaman, F. C. Shelly, K. W. Wierzchoś. 1.0-m prime focus + CCD.

Orbital elements:  CAXXR72
   Perihelion 2024 Dec 21.94410 +/- 2.65 TT = 22:39:30 (JD 2460666.44410)
Epoch 2024 Oct  3.0 TT = JDT 2460586.5   Earth MOID: 0.0742      AutoNEOCP
M 291.55043409 +/- 2.5              (J2000 ecliptic)
n   0.85621781 +/- 0.00378          Peri.  243.36204 +/- 2.3
a   1.09836463 +/- 0.00324          Node   196.72552 +/- 0.040
e   0.0474046 +/- 0.00218           Incl.   20.20276 +/- 0.18
P   1.151/420.446d         H 24.40  G  0.15   U  9.0
q 1.04629705 +/- 0.00129    Q 1.15043221 +/- 0.00566
From 18 observations 2024 Oct. 2-3 (24.9 hr); mean residual 0".21
Residuals in arcseconds: 
241002 G96  .36-  .43+    241002 H01  .19-  .22-    241003 I52  .09-  .07+    
241002 G96  .14+  .24+    241003 H21  .25+  .09-    241003 I52  .14+  .36+    
241002 G96  .48+  .16-    241003 H21  .05+  .06-    241003 858  .12+  .00     
241002 H01  .01+  .15-    241003 H21  .24-  .23-    241003 I52  .45-  .04+    
241002 H01  .09-  .13-    241003 H21  .05-  .21-    241003 673  .12+  .07+    
241002 H01  .01-  .13-    241003 858  .07-  .32+    241003 673  .15+  .31-    

Ephemerides (geocentric):
Date (UTC) HH   RA             Dec           delta  r     elong  mag " sig PA
---- --------  ------------   ------------  ------ ------ -----  --- --------
2024 10 04 01  21 38 24.429   +20 19 53.91  .11310 1.0807 133.0 21.5 .968   2
2024 10 04 02  21 38 31.902   +20 12 55.29  .11302 1.0806 133.0 21.5 1.05   1
2024 10 04 03  21 38 39.384   +20 05 56.05  .11295 1.0806 133.0 21.5 1.13   0
2024 10 04 04  21 38 46.875   +19 58 56.21  .11287 1.0806 133.1 21.5 1.22 179
2024 10 04 05  21 38 54.375   +19 51 55.76  .11280 1.0805 133.1 21.5 1.31 178
2024 10 04 06  21 39 01.883   +19 44 54.70  .11272 1.0805 133.1 21.5 1.40 178
2024 10 04 07  21 39 09.401   +19 37 53.04  .11265 1.0805 133.2 21.5 1.49 177
2024 10 04 08  21 39 16.927   +19 30 50.79  .11258 1.0804 133.2 21.5 1.59 177
2024 10 04 09  21 39 24.462   +19 23 47.94  .11250 1.0804 133.2 21.5 1.69 176
2024 10 04 10  21 39 32.006   +19 16 44.51  .11243 1.0804 133.2 21.5 1.79 176
2024 10 04 11  21 39 39.558   +19 09 40.48  .11236 1.0803 133.3 21.5 1.90 175
2024 10 04 12  21 39 47.120   +19 02 35.87  .11229 1.0803 133.3 21.5 2.01 175
2024 10 04 13  21 39 54.690   +18 55 30.68  .11222 1.0803 133.3 21.5 2.12 174
2024 10 04 14  21 40 02.269   +18 48 24.91  .11215 1.0802 133.3 21.5 2.23 174
2024 10 04 15  21 40 09.856   +18 41 18.57  .11208 1.0802 133.4 21.5 2.35 174
2024 10 04 16  21 40 17.452   +18 34 11.66  .11201 1.0802 133.4 21.5 2.47 173
2024 10 04 17  21 40 25.057   +18 27 04.18  .11195 1.0802 133.4 21.5 2.60 173
2024 10 04 18  21 40 32.671   +18 19 56.14  .11188 1.0801 133.4 21.5 2.72 173
2024 10 04 19  21 40 40.294   +18 12 47.54  .11181 1.0801 133.5 21.5 2.85 173
2024 10 04 20  21 40 47.925   +18 05 38.38  .11175 1.0801 133.5 21.5 2.98 172
2024 10 04 21  21 40 55.564   +17 58 28.68  .11168 1.0800 133.5 21.4 3.12 172
2024 10 04 22  21 41 03.213   +17 51 18.42  .11162 1.0800 133.5 21.4 3.25 172
2024 10 04 23  21 41 10.870   +17 44 07.61  .11155 1.0800 133.5 21.4 3.40 172
2024 10 05 00  21 41 18.536   +17 36 56.27  .11149 1.0799 133.6 21.4 3.54 171
2024 10 05 01  21 41 26.210   +17 29 44.39  .11142 1.0799 133.6 21.4 3.69 171
2024 10 05 02  21 41 33.893   +17 22 31.97  .11136 1.0799 133.6 21.4 3.83 171
2024 10 05 03  21 41 41.584   +17 15 19.02  .11130 1.0798 133.6 21.4 3.99 171
2024 10 05 04  21 41 49.285   +17 08 05.55  .11124 1.0798 133.7 21.4 4.14 171
2024 10 05 05  21 41 56.993   +17 00 51.56  .11118 1.0798 133.7 21.4 4.30 171
2024 10 05 06  21 42 04.711   +16 53 37.04  .11111 1.0798 133.7 21.4 4.46 170
2024 10 05 07  21 42 12.436   +16 46 22.02  .11105 1.0797 133.7 21.4 4.63 170
2024 10 05 08  21 42 20.171   +16 39 06.48  .11099 1.0797 133.7 21.4 4.79 170
2024 10 05 09  21 42 27.914   +16 31 50.43  .11094 1.0797 133.8 21.4 4.96 170
2024 10 05 10  21 42 35.665   +16 24 33.89  .11088 1.0796 133.8 21.4 5.14 170
2024 10 05 11  21 42 43.425   +16 17 16.84  .11082 1.0796 133.8 21.4 5.31 170
2024 10 05 12  21 42 51.193   +16 09 59.30  .11076 1.0796 133.8 21.4 5.49 170
2024 10 05 13  21 42 58.970   +16 02 41.27  .11070 1.0795 133.8 21.4 5.67 169
2024 10 05 14  21 43 06.755   +15 55 22.76  .11065 1.0795 133.8 21.4 5.86 169
2024 10 05 15  21 43 14.549   +15 48 03.76  .11059 1.0795 133.9 21.4 6.04 169
2024 10 05 16  21 43 22.351   +15 40 44.29  .11054 1.0794 133.9 21.4 6.24 169
2024 10 05 17  21 43 30.162   +15 33 24.34  .11048 1.0794 133.9 21.4 6.43 169
2024 10 05 18  21 43 37.981   +15 26 03.92  .11043 1.0794 133.9 21.4 6.63 169
2024 10 05 19  21 43 45.808   +15 18 43.04  .11038 1.0794 133.9 21.4 6.83 169
2024 10 05 20  21 43 53.644   +15 11 21.70  .11032 1.0793 133.9 21.4 7.03 169
2024 10 05 21  21 44 01.488   +15 03 59.90  .11027 1.0793 134.0 21.4 7.23 169
2024 10 05 22  21 44 09.341   +14 56 37.65  .11022 1.0793 134.0 21.4 7.44 169
2024 10 05 23  21 44 17.202   +14 49 14.95  .11017 1.0792 134.0 21.4 7.65 169
2024 10 06 00  21 44 25.071   +14 41 51.81  .11012 1.0792 134.0 21.4 7.87 168